This demonstration page uses our WeatherBlox Daily Observations layout. Learn more.

Left ArrowRight Arrow

Hourly Observations for May 2, 2021

Temp ( °F °C ) Dew Point ( °F °C ) Humidity (%) Winds ( mph kmh ) Pressure ( in mb ) Visibility ( mi km ) Precip ( " mm )
12:15 am 00:15 Clear 67 19.7 50 9.9 53 53 S 16 26 29.51 999 10 16 N/A
12:35 am 00:35 Clear 67 19.5 52 11.3 59 59 S 17 28 29.51 999 10 16 N/A
12:55 am 00:55 Clear 67 19.3 54 12 63 63 S 17 28 29.51 999 10 16 N/A
1:15 am 01:15 Clear 67 19.5 55 12.5 64 64 SSW 17 28 29.51 999 10 16 N/A
1:35 am 01:35 Clear 67 19.3 55 12.7 66 66 SSW 17 28 29.50 999 10 16 N/A
1:55 am 01:55 Clear 66 19 55 12.8 67 67 SSW 12 19 29.51 999 10 16 N/A
2:15 am 02:15 Clear 65 18.5 55 13 71 71 SSW 12 19 29.50 999 10 16 N/A
2:35 am 02:35 Clear 65 18.1 55 13 72 72 SSW 12 19 29.49 999 10 16 N/A
2:55 am 02:55 Clear 64 17.8 56 13.1 74 74 S 12 19 29.50 999 10 16 N/A
3:15 am 03:15 Clear 64 17.6 56 13.2 76 76 SSW 12 19 29.50 999 10 16 N/A
3:35 am 03:35 Clear 62 16.9 56 13.1 78 78 S 13 20 29.49 999 10 16 N/A
3:55 am 03:55 Clear 63 17 55 13 77 77 SSW 10 17 29.50 999 10 16 N/A
4:15 am 04:15 Clear 62 16.7 55 12.7 77 77 SSW 10 17 29.50 999 10 16 N/A
4:35 am 04:35 Clear 60 15.8 54 12.3 80 80 SSW 8 13 29.50 999 10 16 N/A
4:55 am 04:55 Clear 60 15.6 54 12.3 81 81 SW 5 7 29.50 999 10 16 N/A
5:15 am 05:15 Clear 59 15.2 54 12.1 82 82 SSW 5 7 29.51 999 10 16 N/A
5:35 am 05:35 Clear 59 15.1 54 12.1 82 82 S 9 15 29.50 999 10 16 N/A
5:55 am 05:55 Clear 58 14.4 54 12 86 86 S 6 9 29.49 999 10 16 N/A
6:15 am 06:15 Clear 58 14.5 54 12.2 86 86 S 8 13 29.49 999 10 16 N/A
6:35 am 06:35 Sunny 58 14.3 54 12.1 87 87 S 8 13 29.49 998 10 16 N/A
6:55 am 06:55 Sunny 58 14.4 54 12.4 88 88 S 9 15 29.48 998 10 16 N/A
7:15 am 07:15 Sunny 58 14.2 55 12.8 91 91 S 8 13 29.50 999 10 16 N/A
7:35 am 07:35 Sunny 59 14.8 56 13.5 92 92 S 8 13 29.49 999 10 16 N/A
7:55 am 07:55 Sunny 60 15.4 57 13.9 91 91 S 10 17 29.49 999 10 16 N/A
8:15 am 08:15 Sunny 61 16 57 14.1 89 89 S 13 20 29.48 998 10 16 N/A
8:35 am 08:35 Partly Cloudy 62 16.5 58 14.4 87 87 SSW 10 17 29.49 999 10 16 N/A
8:55 am 08:55 Mostly Cloudy 63 17 58 14.5 85 85 SSW 12 19 29.48 998 10 16 N/A
9:15 am 09:15 Cloudy 64 18 58 14.6 81 81 SW 15 24 29.46 998 10 16 N/A
9:35 am 09:35 Cloudy 65 18.2 58 14.5 79 79 SW 14 22 29.47 998 10 16 N/A
9:55 am 09:55 Mostly Cloudy 65 18.6 58 14.2 76 76 SW 14 22 29.47 998 10 16 N/A
10:15 am 10:15 Mostly Cloudy 66 19.1 58 14.3 74 74 SW 12 19 29.47 998 10 16 N/A
10:35 am 10:35 Partly Cloudy 67 19.7 58 14.3 71 71 SW 10 17 29.46 998 10 16 N/A
10:55 am 10:55 Sunny 69 20.8 58 14.4 67 67 SW 8 13 29.44 997 10 16 N/A
11:15 am 11:15 Sunny 69 20.8 57 13.9 65 65 WSW 10 17 29.45 997 10 16 N/A
11:35 am 11:35 Sunny 71 21.5 57 13.7 61 61 SW 5 7 29.45 997 10 16 N/A
11:55 am 11:55 Sunny 71 21.5 56 13.4 60 60 SSW 5 7 29.45 997 10 16 N/A
12:15 pm 12:15 Sunny 71 21.7 56 13.5 60 60 SW 3 6 29.43 997 10 16 N/A
12:35 pm 12:35 Sunny 73 22.6 56 13.2 55 55 W 5 7 29.43 997 10 16 N/A
12:55 pm 12:55 Sunny 72 22.4 56 13.1 56 56 W 5 7 29.43 997 10 16 N/A
1:15 pm 13:15 Partly Cloudy 74 23.3 57 13.7 55 55 W 5 7 29.42 996 10 16 N/A
1:35 pm 13:35 Partly Cloudy 74 23.6 56 13.3 53 53 N N/A 29.41 996 10 16 N/A
1:55 pm 13:55 Sunny 75 23.9 55 12.7 50 50 N N/A 29.40 996 10 16 N/A
2:15 pm 14:15 Sunny 76 24.7 55 13 48 48 SSW 5 7 29.39 995 10 16 N/A
2:35 pm 14:35 Sunny 77 25.1 55 12.5 46 46 SSE 5 7 29.39 995 10 16 N/A
2:55 pm 14:55 Sunny 78 25.5 55 12.7 45 45 SSW 6 9 29.37 995 10 16 N/A
3:15 pm 15:15 Sunny 78 25.7 55 12.8 45 45 SSW 5 7 29.35 994 10 16 N/A
3:35 pm 15:35 Sunny 78 25.8 53 11.8 42 42 N N/A 29.34 994 10 16 N/A
3:55 pm 15:55 Sunny 80 26.5 53 11.8 40 40 N N/A 29.34 993 10 16 N/A
4:15 pm 16:15 Sunny 80 26.5 53 11.7 40 40 E 3 6 29.33 993 10 16 N/A
4:35 pm 16:35 Sunny 80 26.8 52 11.1 38 38 SE 8 13 29.32 993 10 16 N/A
4:55 pm 16:55 Sunny 81 27.2 52 10.9 36 36 N N/A 29.32 993 10 16 N/A
5:15 pm 17:15 Partly Cloudy 81 27.3 52 10.9 36 36 SSE 5 7 29.32 993 10 16 N/A
5:35 pm 17:35 Mostly Cloudy 80 26.5 52 11.1 38 38 SSW 7 11 29.32 993 10 16 N/A
5:55 pm 17:55 Partly Cloudy 81 27.2 51 10.8 36 36 S 8 13 29.31 993 10 16 N/A
6:15 pm 18:15 Sunny 79 26.3 51 10.8 38 38 SSW 7 11 29.32 993 10 16 N/A
6:35 pm 18:35 Partly Cloudy 80 26.5 52 11 38 38 SSW 3 6 29.32 993 10 16 N/A
6:55 pm 18:55 Mostly Cloudy 79 26.1 53 11.7 41 41 S 6 9 29.31 993 10 16 N/A
7:15 pm 19:15 Mostly Cloudy with Nearby Thunderstorms 78 25.8 53 11.8 42 42 SSE 5 7 29.30 992 10 16 N/A
7:35 pm 19:35 Mostly Cloudy with Thunderstorms 75 24.1 54 12.2 47 47 E 12 19 29.32 993 10 16 N/A
7:55 pm 19:55 Cloudy with Thunderstorms 75 24 54 12.1 47 47 ENE 6 9 29.34 993 10 16 N/A
8:15 pm 20:15 Cloudy with Thunderstorms 71 21.7 57 13.9 61 61 N 24 39 29.38 995 7 11 0.03 0.76
8:35 pm 20:35 Cloudy 61 16.3 57 13.7 85 85 NNE 20 31 29.46 998 2 3 0.33 8.38
8:55 pm 20:55 Cloudy with Thunderstorms 61 16.1 55 12.8 81 81 N 20 31 29.48 998 7 11 0.40 10.16
9:15 pm 21:15 Cloudy with Thunderstorms 61 16 55 12.6 80 80 NNW 13 20 29.53 1000 7 11 0.07 1.78
9:35 pm 21:35 Cloudy with Thunderstorms 60 15.7 57 13.8 89 89 NW 22 35 29.55 1001 5 8 0.14 3.56
9:55 pm 21:55 Cloudy with Thunderstorms 58 14.7 56 13.3 91 91 NW 26 43 29.56 1001 3 5 0.28 7.11
10:15 pm 22:15 Cloudy with Strong Thunderstorms 58 14.6 56 13.2 91 91 NW 21 33 29.57 1001 4 6 0.13 3.30
10:35 pm 22:35 Cloudy with Nearby Thunderstorms 58 14.5 56 13.1 91 91 NW 20 31 29.58 1002 5 8 0.24 6.10
10:55 pm 22:55 Cloudy with Nearby Thunderstorms 58 14.6 55 13 90 90 NW 16 26 29.60 1002 7 11 0.32 8.13
11:15 pm 23:15 Cloudy with Nearby Thunderstorms 58 14.7 56 13.2 91 91 N 14 22 29.60 1002 7 11 0.06 1.52
11:35 pm 23:35 Cloudy with Rain 59 14.8 56 13.1 90 90 NNE 15 24 29.61 1003 10 16 0.12 3.05
11:55 pm 23:55 Cloudy with Rain 58 14.6 56 13.1 91 91 NE 24 39 29.60 1002 7 11 0.21 5.33

Powered by AerisWeather